"TOA5","AWS1","CR1000","7964","CR1000.Std.14","CPU:AWS1_114.CR1","64363","TBL110"
"TIMESTAMP","RECORD","Wind_spd_WVc(1)","Wind_spd_WVc(2)","Air_Temp_Avg","Humidity_Avg","SW_upper_Wm2_Avg","Rain_Tot","Press_Avg","Issui_Tot","Depth_cm","SR50A_Raw","Quality","Ground_Temp_Avg(1)","Ground_Temp_Avg(2)","SW_lower_Wm2_Avg","Albedo_Avg","SWC_per(1)","SWC_per(2)","Period(1)","Period(2)"
"TS","RN","","","","","","","","","","","","","","","","","","",""
"","","WVc","WVc","Avg","Avg","Avg","Tot","Avg","Tot","Smp","Smp","Smp","Avg","Avg","Avg","Avg","Smp","Smp","Smp","Smp"
"2016-11-08 00:00:00",260989,0.578,151.5,6.629,74.68,0,0,869.5211,0,-0.676,3.149,204,8.12,9.25,0,0,50.5,57.74,33.42,35.16
"2016-11-08 00:10:00",260990,0.586,148.7,6.656,74.9,0,0,869.5168,0,-0.75,3.149,202,8.12,9.25,0,0,50.5,57.74,33.42,35.16
"2016-11-08 00:20:00",260991,0.485,141.5,6.707,75.15,0,0,869.4558,0,-0.952,3.151,213,8.12,9.25,0,0,50.5,57.8,33.42,35.17
"2016-11-08 00:30:00",260992,0.505,120.6,6.692,75.66,0,0,869.3083,0,-1.382,3.155,200,8.12,9.25,0,0,50.55,57.74,33.43,35.16
"2016-11-08 00:40:00",260993,0.626,126.4,6.745,75.09,0,0,869.2514,0,-2.496,3.166,194,8.12,9.25,0,0,50.5,57.8,33.42,35.17
"2016-11-08 00:50:00",260994,0.622,123.1,6.687,76.43,0,0,869.0513,0,-1.639,3.159,197,8.1,9.25,0,0,50.55,57.8,33.43,35.17
"2016-11-08 01:00:00",260995,0.393,109.8,6.379,78.11,0,0,869.1545,0,-1.767,3.161,192,8.08,9.25,0,0,50.5,57.8,33.42,35.17
"2016-11-08 01:10:00",260996,0.417,97.7,6.358,78.73,0,0,869.2683,0,-1.867,3.162,193,8.04,9.26,0,0,50.5,57.74,33.42,35.16
"2016-11-08 01:20:00",260997,0.277,104.6,6.195,79.75,0,0,869.4432,0,-1.72,3.162,200,8.04,9.29,0,0,50.5,57.8,33.42,35.17
"2016-11-08 01:30:00",260998,0.403,130.4,6.296,79.68,0,0,869.5211,0,-1.767,3.161,198,8.05,9.29,0.01516336,0,50.5,57.8,33.42,35.17
"2016-11-08 01:40:00",260999,0.61,122.1,6.571,78.41,0.003931629,0,869.5148,0,-2.093,3.163,189,8.04,9.29,0.3677114,0.032,50.5,57.8,33.42,35.17
"2016-11-08 01:50:00",261000,0.439,68.72,6.534,78.76,0,0,869.3146,0,-2.144,3.164,193,8.04,9.28,0,0,50.5,57.74,33.42,35.16
"2016-11-08 02:00:00",261001,0.318,101.9,6.544,78.89,0,0,869.2409,0,-1.74,3.16,197,8.04,9.28,0,0,50.5,57.8,33.42,35.17
"2016-11-08 02:10:00",261002,0.2,103.5,6.45,79.52,0,0,869.243,0,-1.968,3.163,197,8.04,9.29,0,0,50.5,57.74,33.42,35.16
"2016-11-08 02:20:00",261003,0.305,82.5,6.167,81.2,0,0,869.0218,0,-1.593,3.161,198,8.04,9.3,0,0,50.55,57.74,33.43,35.16
"2016-11-08 02:30:00",261004,0.337,58.06,6.073,81.8,0,0,869.0049,0,-1.771,3.163,198,8.04,9.3,0,0,50.55,57.8,33.43,35.17
"2016-11-08 02:40:00",261005,0.447,149.1,6.134,81.1,0,0,868.7858,0,-1.946,3.164,198,8.04,9.3,0,0,50.5,57.74,33.42,35.16
"2016-11-08 02:50:00",261006,0.429,131.7,6.061,81.5,0,0,868.7627,0,-1.945,3.164,193,8.04,9.3,0,0,50.5,57.74,33.42,35.16
"2016-11-08 03:00:00",261007,0.923,141.4,6.104,79.74,0,0,868.6762,0,-1.591,3.16,202,8.04,9.29,0.03411755,0,50.5,57.8,33.42,35.17
"2016-11-08 03:10:00",261008,0.543,121.2,6.32,77.43,0,0,868.7416,0,-1.742,3.161,200,8.04,9.3,0.1288885,0,50.5,57.74,33.42,35.16
"2016-11-08 03:20:00",261009,0.385,128.8,6.25,78.82,0,0,868.7627,0,-1.792,3.162,197,8.04,9.29,0,0,50.5,57.74,33.42,35.16
"2016-11-08 03:30:00",261010,0.59,144.2,6.015,80.4,0,0,868.6004,0,-1.748,3.164,201,8.04,9.28,0,0,50.5,57.74,33.42,35.16
"2016-11-08 03:40:00",261011,0.415,130.7,5.784,81.2,0,0,868.6826,0,-1.698,3.164,208,8.07,9.25,0,0,50.5,57.74,33.42,35.16
"2016-11-08 03:50:00",261012,0.38,139.7,5.818,80.5,0,0,868.7162,0,-1.57,3.162,202,8.09,9.25,0,0,50.5,57.74,33.42,35.16
"2016-11-08 04:00:00",261013,0.546,124.4,5.83,80.3,0,0,868.8575,0,-1.496,3.162,198,8.09,9.22,0,0,50.5,57.74,33.42,35.16
"2016-11-08 04:10:00",261014,0.448,139.8,5.774,80.8,0,0,868.9396,0,-2.102,3.168,197,8.11,9.22,0,0,50.5,57.74,33.42,35.16
"2016-11-08 04:20:00",261015,0.518,163.7,5.836,80.3,0,0,868.986,0,-1.846,3.164,216,8.12,9.21,0.05686258,0,50.55,57.74,33.43,35.16
"2016-11-08 04:30:00",261016,0.54,141.4,5.845,80.6,0,0,868.986,0,-1.546,3.162,209,8.12,9.18,0.04169922,0,50.5,57.74,33.42,35.16
"2016-11-08 04:40:00",261017,0.589,132,5.874,80.4,0,0,868.9481,0,-2.152,3.168,203,8.12,9.17,0.01516336,0,50.5,57.74,33.42,35.16
"2016-11-08 04:50:00",261018,0.422,114.8,5.875,80.7,0,0,869.0365,0,-1.972,3.165,203,8.12,9.17,0.01137252,0,50.5,57.74,33.42,35.16
"2016-11-08 05:00:00",261019,0.614,137.2,5.999,79.94,0,0,869.0155,0,-1.898,3.165,207,8.11,9.17,0.1743786,0,50.5,57.74,33.42,35.16
"2016-11-08 05:10:00",261020,0.694,152.9,6.052,79.57,0,0,868.8174,0,-1.998,3.165,205,8.12,9.18,0.08339845,0,50.5,57.74,33.42,35.16
"2016-11-08 05:20:00",261021,0.739,153.1,6.169,79.07,0,0,868.7753,0,-1.946,3.164,214,8.11,9.18,0.01516336,0,50.5,57.74,33.42,35.16
"2016-11-08 05:30:00",261022,0.809,172.8,6.243,79.31,0,0,868.611,0,-1.944,3.163,202,8.1,9.18,0,0,50.5,57.74,33.42,35.16
"2016-11-08 05:40:00",261023,0.298,144.1,6.436,78.4,0,0,868.6931,0,-1.991,3.162,203,8.09,9.17,0,0,50.5,57.74,33.42,35.16
"2016-11-08 05:50:00",261024,0.411,146.4,6.428,78.67,0,0,868.6762,0,-1.512,3.158,196,8.09,9.17,0,0,50.5,57.74,33.42,35.16
"2016-11-08 06:00:00",261025,0.18,21.57,6.423,79.1,0,0,868.8764,0,-1.665,3.16,194,8.09,9.17,0,0,50.5,57.74,33.42,35.16
"2016-11-08 06:10:00",261026,0.372,126.2,6.252,81.2,0,0,869.0155,0,-1.615,3.16,199,8.09,9.17,0,0,50.5,57.74,33.42,35.16
"2016-11-08 06:20:00",261027,0.613,143.3,6.279,80.8,0.3656415,0,868.9228,0,-1.591,3.16,194,8.09,9.18,0.08339845,0.102,50.5,57.74,33.42,35.16
"2016-11-08 06:30:00",261028,0.819,158.5,6.182,81,2.500516,0,868.7268,0,-1.517,3.16,200,8.1,9.17,0.4852274,0.182,50.5,57.74,33.42,35.16
"2016-11-08 06:40:00",261029,0.964,151.4,6.063,81.7,9.911637,0,868.6615,0,-1.568,3.161,192,8.1,9.16,1.815812,0.189,50.5,57.74,33.42,35.16
"2016-11-08 06:50:00",261030,0.875,146.7,6.075,81.7,22.20584,0,868.5309,0,-1.441,3.159,200,8.11,9.16,3.813584,0.172,50.5,57.74,33.42,35.16
"2016-11-08 07:00:00",261031,0.77,143.1,6.148,81.1,36.92979,0,868.5119,0,-1.49,3.159,200,8.11,9.16,6.016061,0.163,50.5,57.74,33.42,35.16
"2016-11-08 07:10:00",261032,0.681,154.6,6.292,80.2,59.64281,0,868.554,0,-1.286,3.156,195,8.12,9.16,9.768991,0.164,50.5,57.74,33.42,35.16
"2016-11-08 07:20:00",261033,0.675,146.1,6.567,79.09,87.17995,0,868.611,0,-1.41,3.156,198,8.09,9.16,14.41656,0.165,50.44,57.74,33.41,35.16
"2016-11-08 07:30:00",261034,0.709,152.1,6.757,78.27,58.54196,0,868.632,0,-1.686,3.158,184,8.08,9.16,9.098012,0.155,50.5,57.74,33.42,35.16
"2016-11-08 07:40:00",261035,0.432,146.2,6.792,78.76,61.81307,0,868.7563,0,-1.584,3.157,188,8.08,9.16,9.219319,0.148,50.5,57.74,33.42,35.16
"2016-11-08 07:50:00",261036,0.464,161.2,6.9,77.87,69.76675,0,868.7205,0,-1.429,3.154,196,8.06,9.17,10.60298,0.152,50.5,57.74,33.42,35.16
"2016-11-08 08:00:00",261037,0.654,134.4,6.98,78.05,68.78385,0,868.7627,0,-1.101,3.151,193,8.05,9.16,10.29971,0.15,50.5,57.74,33.42,35.16
"2016-11-08 08:10:00",261038,0.565,135.1,7.148,77.57,92.81397,0,868.7162,0,-1.122,3.15,193,8.04,9.15,14.32558,0.154,50.5,57.74,33.42,35.16
"2016-11-08 08:20:00",261039,0.663,132.2,7.317,76.54,111.0253,0,868.5772,0,-1.473,3.152,194,8.04,9.17,17.87001,0.161,50.5,57.74,33.42,35.16
"2016-11-08 08:30:00",261040,0.535,134.5,7.631,74.92,114.7643,0,868.6111,0,-1.848,3.154,202,8.04,9.21,19.1172,0.166,50.44,57.74,33.41,35.16
"2016-11-08 08:40:00",261041,0.726,133.4,8.05,73.02,137.9294,0,868.5164,0,-1.591,3.15,208,8.09,9.22,24.24241,0.175,50.5,57.74,33.42,35.16
"2016-11-08 08:50:00",261042,0.6,130.7,8.11,72.36,107.766,0,868.5794,0,-2.63,3.16,201,8.11,9.24,17.67668,0.163,50.5,57.74,33.42,35.16
"2016-11-08 09:00:00",261043,0.856,132.3,8.42,71.62,146.7991,0,868.4214,0,-5.26,3.183,185,8.12,9.25,26.05063,0.177,50.5,57.74,33.42,35.16
"2016-11-08 09:10:00",261044,0.615,126,8.25,71.46,116.0838,0,868.3146,0,-1.788,3.151,227,8.14,9.25,16.77804,0.144,50.44,57.68,33.41,35.14
"2016-11-08 09:20:00",261045,0.309,117.1,8.44,72.56,159.7358,0,868.415,0,-1.248,3.144,230,8.12,9.25,24.68558,0.154,50.5,57.68,33.42,35.14
"2016-11-08 09:30:00",261046,0.309,124.8,8.65,72.76,192.0684,0,868.2032,0,-1.487,3.144,219,8.09,9.23,28.82383,0.15,50.5,57.74,33.42,35.16
"2016-11-08 09:40:00",261047,0.409,54.38,8.66,70.82,174.4009,0,868.2977,0,-1.885,3.149,279,8.07,9.22,25.22922,0.145,50.44,57.68,33.41,35.14
"2016-11-08 09:50:00",261048,0.372,121.1,8.72,71.21,176.2621,0,868.1628,0,-2.813,3.158,235,8.01,9.2,25.82228,0.146,50.44,57.74,33.41,35.16
"2016-11-08 10:00:00",261049,0.547,78.28,8.76,70.84,170.6366,0,867.948,0,-2.779,3.158,231,8.08,9.18,25.21783,0.148,50.5,57.74,33.42,35.16
"2016-11-08 10:10:00",261050,0.707,112.6,8.84,69.73,213.7366,0,867.908,0,-0.408,3.134,249,8.13,9.17,32.10236,0.15,50.44,57.68,33.41,35.14
"2016-11-08 10:20:00",261051,0.572,82,8.98,69.22,206.0361,0,867.8975,0,-4.236,3.17,193,8.12,9.16,30.85106,0.15,50.44,57.68,33.41,35.14
"2016-11-08 10:30:00",261052,0.284,40.39,8.99,69.12,194.9115,0,867.8342,0,-0.654,3.135,205,8.09,9.16,28.91812,0.148,50.44,57.68,33.41,35.14
"2016-11-08 10:40:00",261053,0.344,89.4,9.23,70.04,173.2236,0,867.8954,0,-1.008,3.138,224,8.14,9.16,25.72345,0.148,50.44,57.68,33.41,35.14
"2016-11-08 10:50:00",261054,0.676,122.7,8.96,70.27,157.1289,0,867.8912,0,-2.16,3.152,244,8.2,9.16,23.33223,0.148,50.44,57.68,33.41,35.14
"2016-11-08 11:00:00",261055,0.7,129,8.87,70.93,210.5612,0,867.5331,0,-2.742,3.157,242,8.18,9.16,32.37408,0.154,50.44,57.68,33.41,35.14
"2016-11-08 11:10:00",261056,0.824,127.9,8.7,71.08,210.9699,0,866.9391,0,-0.043,3.129,283,8.18,9.16,32.35513,0.153,50.5,57.68,33.42,35.14
"2016-11-08 11:20:00",261057,0.437,47.03,9.35,69.46,237.6134,0,867.0528,0,-1.077,3.137,254,8.25,9.15,36.98217,0.155,50.5,57.68,33.42,35.14
"2016-11-08 11:30:00",261058,0.455,80.4,9.37,69.88,128.882,0,867.175,0,-0.776,3.135,235,8.27,9.16,18.25802,0.141,50.44,57.68,33.41,35.14
"2016-11-08 11:40:00",261059,0.495,57.91,9.09,70.23,126.5002,0,867.1349,0,-0.861,3.138,224,8.32,9.16,17.94349,0.138,50.44,57.68,33.41,35.14
"2016-11-08 11:50:00",261060,0.616,112.3,8.84,71.81,135.3276,0,866.9286,0,-1.239,3.141,215,8.33,9.16,19.86479,0.146,50.44,57.68,33.41,35.14
"2016-11-08 12:00:00",261061,0.615,65.81,9.13,72.11,163.1541,0,866.9033,0,-0.654,3.135,235,8.38,9.16,25.155,0.154,50.44,57.68,33.41,35.14
"2016-11-08 12:10:00",261062,0.308,109.6,9.34,71.4,174.3711,0,866.6737,0,-1.382,3.14,217,8.34,9.16,26.29186,0.149,50.44,57.68,33.41,35.14
"2016-11-08 12:20:00",261063,0.471,122.1,9.21,71.91,150.9466,0,866.4736,0,-1.768,3.145,221,8.33,9.15,22.18399,0.146,50.44,57.68,33.41,35.14
"2016-11-08 12:30:00",261064,0.628,111.7,9.19,72.01,139.1518,0,866.2209,0,-0.552,3.134,281,8.46,9.15,20.06943,0.144,50.44,57.68,33.41,35.14
"2016-11-08 12:40:00",261065,0.73,133,8.95,72.68,117.5863,0,865.8038,0,-1.445,3.144,223,8.46,9.16,16.69294,0.142,50.44,57.68,33.41,35.14
"2016-11-08 12:50:00",261066,0.493,123.7,8.91,73.06,116.8632,0,865.7596,0,-0.73,3.136,262,8.46,9.16,16.72326,0.14,50.39,57.68,33.39,35.14
"2016-11-08 13:00:00",261067,0.594,119.6,8.84,73.79,61.73302,0,865.8333,0,-1.246,3.143,201,8.51,9.16,7.931517,0.127,50.44,57.68,33.41,35.14
"2016-11-08 13:10:00",261068,0.266,114.3,8.59,75.68,32.44845,0,865.7028,0,-1.96,3.151,203,8.55,9.16,3.869125,0.116,50.44,57.68,33.41,35.14
"2016-11-08 13:20:00",261069,0.308,72.26,8.37,78.98,27.36266,0,865.6522,0,-2.799,3.16,198,8.52,9.16,3.702385,0.134,50.39,57.68,33.39,35.14
"2016-11-08 13:30:00",261070,0.154,91.3,8.29,79.72,31.79209,0,865.6185,0,-2.19,3.154,201,8.51,9.16,4.543664,0.143,50.39,57.68,33.39,35.14
"2016-11-08 13:40:00",261071,0.529,122.4,8.06,81.1,42.82441,0,865.4079,0,-2.021,3.155,231,8.58,9.16,6.305802,0.147,50.39,57.68,33.39,35.14
"2016-11-08 13:50:00",261072,0.676,132.8,7.668,84.4,37.15693,0,865.3636,0,-1.698,3.154,230,8.64,9.16,5.445575,0.147,50.44,57.68,33.41,35.14
"2016-11-08 14:00:00",261073,0.571,107.4,7.543,86,18.05967,0,865.3806,0,-2.156,3.159,200,8.64,9.16,2.880054,0.161,50.39,57.68,33.39,35.14
"2016-11-08 14:10:00",261074,0.488,95.9,7.325,89,23.1652,0,865.2562,0,-1.172,3.15,218,8.64,9.16,3.418182,0.148,50.39,57.68,33.39,35.14
"2016-11-08 14:20:00",261075,0.406,93.5,7.164,92.3,15.43901,0,865.3848,0,-1.11,3.15,217,8.66,9.17,2.179109,0.142,50.39,57.68,33.39,35.14
"2016-11-08 14:30:00",261076,0.537,136.3,6.986,95.3,20.95133,0,865.1487,0,-1.026,3.151,228,8.7,9.2,2.929724,0.14,50.39,57.68,33.39,35.14
"2016-11-08 14:40:00",261077,0.548,129.3,6.911,97.6,28.32806,0,865.0056,0,-1.947,3.159,208,8.71,9.22,4.177022,0.148,50.39,57.62,33.39,35.13
"2016-11-08 14:50:00",261078,0.766,142.4,6.962,97.2,21.21399,0,864.835,0,-1.858,3.159,230,8.79,9.24,3.22584,0.152,50.44,57.62,33.41,35.13
"2016-11-08 15:00:00",261079,0.506,137.7,6.918,97.1,15.79307,0,864.7781,0,-2.112,3.161,216,8.85,9.24,2.456419,0.157,50.39,57.62,33.39,35.13
"2016-11-08 15:10:00",261080,0.541,53.11,7.002,97.5,9.93517,0,864.8792,0,-2.064,3.161,198,8.85,9.25,1.675541,0.17,50.39,57.68,33.39,35.14
"2016-11-08 15:20:00",261081,0.662,123.4,6.894,98,11.61008,0.5,864.8792,0,-2.545,3.166,199,8.83,9.25,1.838553,0.159,50.39,57.68,33.39,35.14
"2016-11-08 15:30:00",261082,0.581,121.9,6.823,99.7,9.439834,0,864.9242,0,-2.597,3.167,194,8.82,9.25,1.531498,0.164,50.39,57.62,33.39,35.13
"2016-11-08 15:40:00",261083,0.721,127,6.703,100,10.91026,0,864.8878,0,-2.826,3.17,197,8.82,9.25,1.686922,0.155,50.39,57.62,33.39,35.13
"2016-11-08 15:50:00",261084,0.909,136.8,6.674,100,14.03591,0,864.726,0,-2.851,3.17,194,8.82,9.25,2.26692,0.162,50.33,57.62,33.38,35.13
"2016-11-08 16:00:00",261085,1.102,125.9,6.676,100,11.19727,0,864.7387,0,-2.851,3.17,198,8.81,9.25,1.975026,0.186,50.39,57.62,33.39,35.13
"2016-11-08 16:10:00",261086,0.613,120,6.654,99.9,4.403422,0,864.6436,0,-2.927,3.171,198,8.81,9.25,1.156205,0.273,50.33,57.62,33.38,35.13
"2016-11-08 16:20:00",261087,0.411,106.9,6.637,96,0.3184618,0,864.5873,0,-2.497,3.167,202,8.81,9.25,0.7088864,0.753,50.39,57.62,33.39,35.13
"2016-11-08 16:30:00",261088,0.488,122.9,6.552,94.7,0.5347012,0,864.4821,0,-2.549,3.168,189,8.81,9.25,0.788494,0.742,50.39,57.62,33.39,35.13
"2016-11-08 16:40:00",261089,0.439,38.06,6.452,95.6,0,0,864.4844,0,-2.778,3.171,197,8.82,9.25,0.4549004,0,50.33,57.62,33.38,35.13
"2016-11-08 16:50:00",261090,0.163,48.96,6.349,96.3,0,0,864.4452,0,-2.753,3.171,197,8.81,9.26,0.4549004,0,50.33,57.62,33.38,35.13
"2016-11-08 17:00:00",261091,0.306,128.4,6.325,95.4,0,0,864.1852,0,-2.753,3.171,197,8.81,9.28,0.5155538,0,50.33,57.62,33.38,35.13
"2016-11-08 17:10:00",261092,0.289,87.3,6.247,95.8,0,0,864.1476,0,-2.4,3.168,195,8.8,9.3,0.4549004,0,50.39,57.62,33.39,35.13
"2016-11-08 17:20:00",261093,0.156,180.8,6.279,94.5,0,0,864.3246,0,-2.097,3.165,195,8.8,9.33,0.5117629,0,50.33,57.62,33.38,35.13
"2016-11-08 17:30:00",261094,0.168,69.68,6.24,95.1,0,0.5,864.4621,0,-1.793,3.162,198,8.8,9.38,0.5079721,0,50.39,57.62,33.39,35.13
"2016-11-08 17:40:00",261095,0,0,6.23,98,0,0,864.4643,0,-2.602,3.17,199,8.81,9.41,0.4549004,0,50.39,57.62,33.39,35.13
"2016-11-08 17:50:00",261096,0,0,6.178,100,0,0,864.3969,0,-1.998,3.165,194,8.81,9.42,0.3601294,0,50.33,57.62,33.38,35.13
"2016-11-08 18:00:00",261097,0,0,6.16,100,0,0.5,864.3759,0,-0.227,3.147,258,8.81,9.42,0.4283645,0,50.33,57.62,33.38,35.13
"2016-11-08 18:10:00",261098,0,0,6.156,100,0,0.5,864.4074,0,-0.81,3.153,219,8.81,9.42,0.2653585,0,50.33,57.62,33.38,35.13
"2016-11-08 18:20:00",261099,0.037,280.5,6.153,100,0,0,864.4456,0,-2.755,3.172,190,8.81,9.42,0.163006,0,50.39,57.62,33.39,35.13
"2016-11-08 18:30:00",261100,0.25,227.5,6.147,100,0,0.5,864.4393,0,-2.225,3.167,224,8.81,9.39,0.05307171,0,50.39,57.62,33.39,35.13
"2016-11-08 18:40:00",261101,0.246,229.3,6.104,100,0,0.5,864.2758,0,-3.668,3.183,194,8.82,9.35,0.01516335,0,50.39,57.62,33.39,35.13
"2016-11-08 18:50:00",261102,1.299,304.4,5.353,100,0,0,864.4452,0,-2.562,3.176,197,8.82,9.37,0.01516335,0,50.33,57.62,33.38,35.13
"2016-11-08 19:00:00",261103,1.141,289,4.965,100,0,1,864.6245,0,-3.042,3.182,190,8.82,9.41,0.007581673,0,50.39,57.62,33.39,35.13
"2016-11-08 19:10:00",261104,1.284,306.3,4.612,100,0,0.5,864.6497,0,-2.792,3.182,193,8.85,9.42,0.01137251,0,50.44,57.62,33.41,35.13
"2016-11-08 19:20:00",261105,1.894,293.1,4.171,100,0,0,864.7572,0,-2.09,3.178,193,8.88,9.42,0.05307171,0,50.5,57.62,33.42,35.13
"2016-11-08 19:30:00",261106,1.533,288.7,3.751,100,0,1,864.9743,0,-1.587,3.175,194,8.9,9.42,0.02653586,0,50.66,57.62,33.46,35.13
"2016-11-08 19:40:00",261107,1.119,285.8,3.448,100,0,0.5,865.0121,0,-1.816,3.179,198,8.87,9.42,0.0416992,0,50.77,57.62,33.49,35.13
"2016-11-08 19:50:00",261108,0.517,242.9,3.225,100,0,0.5,864.9785,0,-1.564,3.177,196,8.76,9.42,0.09477091,0,50.99,57.62,33.54,35.13
"2016-11-08 20:00:00",261109,1.036,290.1,3.028,99.7,0,0.5,865.0438,0,-1.215,3.176,195,8.73,9.42,0.1554243,0,51.33,57.62,33.62,35.13
"2016-11-08 20:10:00",261110,1.007,290,2.724,99.7,0,0,864.9737,0,-1.48,3.18,200,8.8,9.43,0.1175214,0,51.66,57.62,33.7,35.13
"2016-11-08 20:20:00",261111,1.096,287.9,2.557,99.1,0,0.5,864.9766,0,-1.544,3.181,194,8.85,9.46,0.2198971,0,51.94,57.62,33.77,35.13
"2016-11-08 20:30:00",261112,0.903,278.7,2.311,99.1,0,0,865.1375,0,-1.407,3.182,196,8.84,9.48,0.2767967,0,52.1,57.68,33.81,35.14
"2016-11-08 20:40:00",261113,1.104,288.2,1.96,99.9,0,0.5,865.2645,0,-1.488,3.184,195,8.76,9.49,0.2995664,0,52.21,57.74,33.84,35.16
"2016-11-08 20:50:00",261114,1.093,302.7,1.734,100,0,0.5,865.2928,0,-1.214,3.182,187,8.8,9.46,0.5195146,0,52.32,57.86,33.87,35.18
"2016-11-08 21:00:00",261115,1.122,298.6,1.545,100,0,0,865.5164,0,-1.541,3.187,194,8.82,9.43,0.5574408,0,52.38,57.91,33.88,35.2
"2016-11-08 21:10:00",261116,0.951,307.1,1.358,100,0,0,865.5654,0,-1.165,3.185,203,8.8,9.43,0.6522456,0,52.49,58.03,33.91,35.22
"2016-11-08 21:20:00",261117,1.607,305.4,1.09,100,0,0.5,865.5792,0,-2.367,3.198,187,8.75,9.44,0.5195218,0,52.49,58.21,33.91,35.26
"2016-11-08 21:30:00",261118,0.848,287.1,0.977,100,0,0,865.8113,0,-1.715,3.192,195,8.73,9.41,0.64087,0,52.55,58.32,33.92,35.29
"2016-11-08 21:40:00",261119,0.717,303.2,0.798,100,0,0,865.6301,0,-2.215,3.198,180,8.73,9.44,0.5498589,0,52.55,58.44,33.92,35.32
"2016-11-08 21:50:00",261120,0.705,282,0.675,100,0,0,865.4952,0,-1.964,3.196,189,8.66,9.43,0.5043533,0,52.55,58.56,33.92,35.35
"2016-11-08 22:00:00",261121,0.672,284,0.489,100,0,0,865.3372,0,-2.364,3.2,189,8.69,9.45,0.4853927,0,52.55,58.61,33.92,35.36
"2016-11-08 22:10:00",261122,0.392,297.6,0.502,100,0,0,865.3709,0,-2.315,3.2,188,8.65,9.44,0.6749992,0,52.49,58.79,33.91,35.4
"2016-11-08 22:20:00",261123,0.477,271.6,0.483,100,0,0,865.3456,0,-2.214,3.199,193,8.65,9.45,0.6598307,0,52.49,58.85,33.91,35.41
"2016-11-08 22:30:00",261124,0.511,280.6,0.431,100,0,0,865.3161,0,-1.989,3.197,194,8.67,9.44,0.5422746,0,52.49,58.91,33.91,35.43
"2016-11-08 22:40:00",261125,0.229,341.6,0.387,100,0,0,865.2887,0,-2.138,3.199,181,8.61,9.43,0.4967691,0,52.44,58.97,33.89,35.44
"2016-11-08 22:50:00",261126,0.348,282.8,0.346,100,0,0,865.0653,0,-2.163,3.199,190,8.56,9.43,0.4740163,0,52.44,59.03,33.89,35.45
"2016-11-08 23:00:00",261127,0.284,277.8,0.328,100,0,0,865.0632,0,-2.213,3.2,177,8.56,9.43,0.4171343,0,52.44,59.08,33.89,35.47
"2016-11-08 23:10:00",261128,0.837,296.7,0.166,100,0,0,864.9894,0,-2.665,3.205,190,8.54,9.43,0.3147492,0,52.44,59.14,33.89,35.48
"2016-11-08 23:20:00",261129,0.474,279.5,0.13,100,0,0,864.9705,0,-1.814,3.198,192,8.51,9.43,0.2578686,0,52.38,59.2,33.88,35.5
"2016-11-08 23:30:00",261130,0.845,299.9,0.091,100,0.003933041,0,865.0568,0,-2.512,3.205,188,8.48,9.43,0.2237401,0.064,52.38,59.26,33.88,35.51
"2016-11-08 23:40:00",261131,0.867,328.5,-0.197,100,0,0,865.0294,0,-2.561,3.207,192,8.48,9.43,0,0,52.38,59.32,33.88,35.52
"2016-11-08 23:50:00",261132,1.418,303,-0.341,100,0,0,864.9725,0,-2.165,3.204,195,8.44,9.43,0,0,52.32,59.32,33.87,35.52
